Murray, KY

1:17 AM CDT on April 26, 2018 (GMT -0500)
Kyle-Oakley

Weather History for KCEY - February, 2013

Change the Weather History Date:

Thursday, February 21, 2013

  Actual Average (KPAH) Record (KPAH)
Temperature  
Mean Temperature 30 °F -  
Max Temperature 37 °F 54 °F 73 °F (2018)
Min Temperature 24 °F 32 °F 1 °F (1963)
Degree Days  
Heating Degree Days 34    
Moisture  
Dew Point 24 °F    
Average Humidity 76    
Maximum Humidity 100    
Minimum Humidity 48    
Precipitation  
Precipitation 0.72 in - - ()
Sea Level Pressure  
Sea Level Pressure 30.05 in    
Wind  
Wind Speed 11 mph (East)    
Max Wind Speed 24 mph    
Max Gust Speed 32 mph    
Visibility 8 miles    
Events      
Averages and records for this station are not official NWS values.
T = Trace of Precipitation, MM = Missing Value Source: NWS Daily Summary

Daily Weather History Graph

Daily Weather History Graph

Search for Another Location

Airport or City:

Astronomy

Feb. 21, 2013 Rise Set
Actual Time 6:34 AM CST 5:40 PM CST
Civil Twilight 6:07 AM CST 6:06 PM CST
Nautical Twilight 5:37 AM CST 6:36 PM CST
Astronomical Twilight 5:07 AM CST 7:06 PM CST
Moon 1:59 PM CST (2/21) 3:34 AM CST (2/21)
Length of Visible Light 11h 58m
Length of Day
11h 06m
Waxing Gibbous, 84% of the Moon is Illuminated
Feb 21
Waxing Gibbous
Feb 25
Full
Mar 4
Last Quarter
Mar 11
New
Mar 19
First Quarter

Hourly Weather History & Observations

Time (CST) Temp. Windchill Dew Point Humidity Pressure Visibility Wind Dir Wind Speed Gust Speed Precip Events Conditions
12:15 AM 26.6 °F 17.5 °F 17.6 °F 69% 30.26 in 10.0 mi NE 9.2 mph - N/A   Partly Cloudy
12:35 AM 26.6 °F 18.2 °F 17.6 °F 69% 30.25 in 10.0 mi ENE 8.1 mph - N/A   Clear
12:55 AM 26.6 °F 17.5 °F 17.6 °F 69% 30.26 in 10.0 mi ENE 9.2 mph - N/A   Clear
1:15 AM 26.6 °F 18.2 °F 17.6 °F 69% 30.26 in 10.0 mi ENE 8.1 mph - N/A   Clear
1:35 AM 26.6 °F 19.1 °F 17.6 °F 69% 30.27 in 10.0 mi East 6.9 mph - N/A   Clear
1:55 AM 24.8 °F 15.3 °F 17.6 °F 74% 30.25 in 10.0 mi ENE 9.2 mph - N/A   Clear
2:15 AM 24.8 °F 17.9 °F 17.6 °F 74% 30.26 in 10.0 mi ENE 5.8 mph - N/A   Clear
2:35 AM 24.8 °F 14.6 °F 17.6 °F 74% 30.24 in 10.0 mi ENE 10.4 mph - N/A   Clear
2:55 AM 26.6 °F 19.1 °F 17.6 °F 69% 30.25 in 10.0 mi ENE 6.9 mph - N/A   Clear
3:15 AM 24.8 °F 15.3 °F 17.6 °F 74% 30.24 in 10.0 mi ENE 9.2 mph - N/A   Partly Cloudy
3:35 AM 24.8 °F 15.3 °F 17.6 °F 74% 30.24 in 10.0 mi ENE 9.2 mph - N/A   Scattered Clouds
3:55 AM 26.6 °F 16.2 °F 17.6 °F 69% 30.23 in 10.0 mi NE 11.5 mph - N/A   Mostly Cloudy
4:15 AM 26.6 °F 18.2 °F 17.6 °F 69% 30.25 in 10.0 mi ENE 8.1 mph - N/A   Overcast
4:35 AM 26.6 °F 20.0 °F 17.6 °F 69% 30.26 in 10.0 mi ENE 5.8 mph - N/A   Overcast
4:55 AM 26.6 °F 16.2 °F 17.6 °F 69% 30.25 in 10.0 mi ENE 11.5 mph - N/A   Overcast
5:15 AM 26.6 °F 16.8 °F 17.6 °F 69% 30.24 in 10.0 mi ENE 10.4 mph - N/A   Overcast
5:35 AM 26.6 °F 16.2 °F 17.6 °F 69% 30.22 in 10.0 mi ENE 11.5 mph - N/A   Mostly Cloudy
5:55 AM 26.6 °F 15.7 °F 17.6 °F 69% 30.21 in 10.0 mi East 12.7 mph - N/A   Mostly Cloudy
6:15 AM 26.6 °F 15.7 °F 17.6 °F 69% 30.21 in 10.0 mi East 12.7 mph 16.1 mph N/A   Scattered Clouds
6:35 AM 26.6 °F 15.2 °F 17.6 °F 69% 30.18 in 10.0 mi East 13.8 mph 17.3 mph N/A   Partly Cloudy
6:55 AM 26.6 °F 15.7 °F 17.6 °F 69% 30.19 in 10.0 mi ENE 12.7 mph 19.6 mph N/A   Clear
7:15 AM 26.6 °F 16.8 °F 17.6 °F 69% 30.19 in 10.0 mi East 10.4 mph - N/A   Clear
7:35 AM 28.4 °F 18.0 °F 15.8 °F 59% 30.20 in 10.0 mi East 12.7 mph - N/A   Clear
7:55 AM 28.4 °F 18.0 °F 17.6 °F 64% 30.19 in 10.0 mi East 12.7 mph 18.4 mph N/A   Clear
8:15 AM 28.4 °F 17.5 °F 17.6 °F 64% 30.20 in 10.0 mi ESE 13.8 mph - N/A   Clear
8:35 AM 30.2 °F 19.3 °F 17.6 °F 60% 30.18 in 10.0 mi East 15.0 mph - N/A   Clear
8:55 AM 32.0 °F 21.2 °F 17.6 °F 55% 30.17 in 10.0 mi East 16.1 mph 20.7 mph N/A   Partly Cloudy
9:15 AM 32.0 °F 20.8 °F 17.6 °F 55% 30.16 in 10.0 mi ESE 17.3 mph 23.0 mph N/A   Mostly Cloudy
9:35 AM 32.0 °F 21.2 °F 17.6 °F 55% 30.15 in 10.0 mi East 16.1 mph 19.6 mph N/A   Mostly Cloudy
9:55 AM 32.0 °F 21.2 °F 17.6 °F 55% 30.15 in 10.0 mi East 16.1 mph 20.7 mph N/A   Mostly Cloudy
10:15 AM 33.8 °F 24.8 °F 17.6 °F 52% 30.13 in 10.0 mi East 12.7 mph 23.0 mph N/A   Mostly Cloudy
10:35 AM 33.8 °F 23.5 °F 17.6 °F 52% 30.13 in 10.0 mi East 16.1 mph 23.0 mph N/A   Mostly Cloudy
10:55 AM 33.8 °F 27.0 °F 19.4 °F 56% 30.11 in 10.0 mi East 8.1 mph 21.9 mph N/A   Partly Cloudy
11:15 AM 33.8 °F 24.3 °F 19.4 °F 56% 30.08 in 10.0 mi East 13.8 mph 20.7 mph N/A   Scattered Clouds
11:35 AM 35.6 °F 25.2 °F 19.4 °F 52% 30.04 in 10.0 mi East 18.4 mph 23.0 mph N/A   Overcast
11:55 AM 35.6 °F 27.1 °F 17.6 °F 48% 30.04 in 10.0 mi East 12.7 mph 23.0 mph N/A   Overcast
12:15 PM 35.6 °F 27.1 °F 17.6 °F 48% 30.02 in 10.0 mi East 12.7 mph 23.0 mph N/A   Overcast
12:35 PM 35.6 °F 24.8 °F 19.4 °F 52% 29.97 in 10.0 mi East 19.6 mph 23.0 mph N/A   Overcast
12:55 PM 35.6 °F 27.1 °F 19.4 °F 52% 29.97 in 10.0 mi East 12.7 mph 24.2 mph N/A   Scattered Clouds
1:15 PM 35.6 °F 26.2 °F 21.2 °F 56% 29.97 in 10.0 mi East 15.0 mph 25.3 mph N/A   Scattered Clouds
1:35 PM 35.6 °F 27.5 °F 23.0 °F 60% 29.97 in 10.0 mi ESE 11.5 mph - N/A   Mostly Cloudy
1:55 PM 35.6 °F 29.2 °F 24.8 °F 65% 29.98 in 6.0 mi East 8.1 mph - 0.01 in   Mostly Cloudy
2:15 PM 33.8 °F 27.0 °F 26.6 °F 75% 29.99 in 5.0 mi East 8.1 mph - 0.02 in   Mostly Cloudy
2:35 PM 33.8 °F 28.6 °F 28.4 °F 81% 30.01 in 3.0 mi ENE 5.8 mph - 0.06 in   Mostly Cloudy
2:55 PM 32.0 °F 23.0 °F 28.4 °F 87% 29.98 in 3.0 mi ENE 11.5 mph - 0.11 in   Mostly Cloudy
3:15 PM 32.0 °F 22.5 °F 28.4 °F 87% 29.99 in 5.0 mi East 12.7 mph - 0.02 in   Mostly Cloudy
3:35 PM 32.0 °F 21.6 °F 28.4 °F 87% 29.97 in 2.5 mi ENE 15.0 mph - 0.08 in   Mostly Cloudy
3:55 PM 32.0 °F 20.8 °F 30.2 °F 93% 29.94 in 2.0 mi East 17.3 mph 21.9 mph 0.17 in   Overcast
4:15 PM 32.0 °F 21.2 °F 30.2 °F 93% 29.95 in 2.0 mi ENE 16.1 mph 24.2 mph 0.06 in   Overcast
4:35 PM 32.0 °F 19.5 °F 30.2 °F 93% 29.90 in 1.8 mi ENE 21.9 mph 26.5 mph 0.14 in   Overcast
4:55 PM 32.0 °F 18.9 °F 30.2 °F 93% 29.85 in 3.0 mi East 24.2 mph 32.2 mph 0.16 in   Overcast
5:15 PM 32.0 °F 20.8 °F 32.0 °F 100% 29.87 in 4.0 mi ENE 17.3 mph 28.8 mph 0.02 in   Overcast
5:35 PM 32.0 °F 22.1 °F 32.0 °F 100% 29.90 in 5.0 mi ENE 13.8 mph 19.6 mph 0.05 in   Overcast
5:55 PM 32.0 °F 23.6 °F 32.0 °F 100% 29.91 in 2.0 mi East 10.4 mph 19.6 mph 0.12 in   Overcast
6:15 PM 32.0 °F 21.6 °F 32.0 °F 100% 29.91 in 4.0 mi ESE 15.0 mph 18.4 mph 0.01 in   Overcast
6:35 PM 32.0 °F 22.5 °F 32.0 °F 100% 29.90 in 4.0 mi East 12.7 mph 19.6 mph 0.02 in   Overcast
6:55 PM 32.0 °F 22.1 °F 32.0 °F 100% 29.89 in 3.0 mi East 13.8 mph 19.6 mph 0.04 in   Overcast
7:15 PM 33.8 °F 23.9 °F 32.0 °F 93% 29.88 in 4.0 mi East 15.0 mph 20.7 mph 0.02 in   Overcast
7:35 PM 33.8 °F 24.8 °F 32.0 °F 93% 29.87 in 9.0 mi ESE 12.7 mph 27.6 mph 0.05 in   Overcast
7:55 PM 35.6 °F 25.2 °F 32.0 °F 87% 29.85 in 9.0 mi ESE 18.4 mph 25.3 mph 0.05 in   Overcast
8:15 PM 35.6 °F 25.9 °F 33.8 °F 93% 29.84 in 9.0 mi ESE 16.1 mph 23.0 mph N/A   Overcast
8:35 PM 35.6 °F 26.6 °F 33.8 °F 93% 29.83 in 10.0 mi ESE 13.8 mph 23.0 mph 0.01 in   Overcast
8:55 PM 35.6 °F 28.0 °F 35.6 °F 100% 29.84 in 10.0 mi SE 10.4 mph 18.4 mph 0.01 in   Overcast
9:15 PM 37.4 °F 32.8 °F 35.6 °F 93% 29.87 in 7.0 mi East 5.8 mph - N/A   Overcast
9:35 PM 37.4 °F 31.4 °F 35.6 °F 93% 29.87 in 3.0 mi East 8.1 mph - 0.03 in   Overcast
9:55 PM 37.4 °F 32.1 °F 35.6 °F 93% 29.86 in 8.0 mi East 6.9 mph - 0.04 in   Overcast
10:15 PM 37.4 °F 32.1 °F 35.6 °F 93% 29.85 in 5.0 mi ESE 6.9 mph - N/A   Overcast
10:55 PM 37.4 °F 32.1 °F 35.6 °F 93% 29.85 in 8.0 mi SE 6.9 mph - N/A   Overcast
11:15 PM 37.4 °F 33.8 °F 37.4 °F 100% 29.84 in 2.0 mi SE 4.6 mph - N/A   Overcast
11:35 PM 37.4 °F 32.1 °F 37.4 °F 100% 29.83 in 2.5 mi SE 6.9 mph - 0.01 in   Overcast
11:55 PM 37.4 °F 33.8 °F 37.4 °F 100% 29.84 in 2.0 mi SSE 4.6 mph - 0.01 in   Overcast